Weather History for Asheville, NC

Change the Weather History Date:

Monday, August 6, 2007

  Actual Average Record
Temperature  
Mean Temperature 78 °F 74 °F  
Max Temperature 89 °F 84 °F 95 °F (1918)
Min Temperature 66 °F 64 °F 50 °F (1948)
Degree Days  
Heating Degree Days 0 0  
Month to date heating degree days 0 0  
Since 1 June heating degree days 14  
Since 1 July heating degree days 0 0  
Cooling Degree Days 13 9  
Month to date cooling degree days 63 54  
Year to date cooling degree days 506 564  
Since 1 June cooling degree days 506  
Growing Degree Days 27 (Base 50)    
Moisture  
Dew Point 66 °F    
Average Humidity 70    
Maximum Humidity 93    
Minimum Humidity 46    
Precipitation  
Precipitation 0.00 in 0.15 in 2.08 in (1901)
Month to date precipitation 0.45 0.85  
Year to date precipitation 20.03 28.06  
Snow  
Snow 0.00 in 0.00 in 0.00 in ()
Month to date snowfall 0.0 0.0  
Since 1 June snowfall 0.0  
Since 1 July snowfall 0.0 0.0  
Snow Depth -    
Sea Level Pressure  
Sea Level Pressure 30.02 in    
Wind  
Wind Speed 4 mph (NNW)    
Max Wind Speed 14 mph    
Max Gust Speed 17 mph    
Visibility 4 miles    
Events Fog    
T = Trace of Precipitation, MM = Missing Value Source: NWS Daily Summary

Daily Weather History Graph

Daily Weather History Graph

Search for Another Location

Airport:

Trip Planner

Search our weather history database for the weather conditions in past years. The results will help you decide how hot, cold, wet, or windy it might be!

Date:

Astronomy

Aug. 06, 2007 Rise Set
Actual Time 6:42 AM EDT 8:29 PM EDT
Civil Twilight 6:14 AM EDT 8:56 PM EDT
Nautical Twilight 5:41 AM EDT 9:30 PM EDT
Astronomical Twilight 5:05 AM EDT 10:05 PM EDT
Moon 12:21 AM EDT (8/6) 3:13 PM EDT (8/6)
Length of Visible Light 14h 42m
Length of Day
13h 47m
Last Quarter, 41% of the Moon is Illuminated
Aug 6
Last Quarter
Aug 12
New
Aug 20
First Quarter
Aug 28
Full
Sep 3
Last Quarter

Hourly Weather History & Observations

Time (EDT) Temp. Heat Index Dew Point Humidity Pressure Visibility Wind Dir Wind Speed Gust Speed Precip Events Conditions
12:54 AM 70.0 °F - 66.9 °F 90% 29.99 in 4.0 mi Calm Calm - N/A   Clear
1:54 AM 70.0 °F - 66.9 °F 90% 29.98 in 2.5 mi Calm Calm - N/A   Clear
2:17 AM 69.8 °F - 66.2 °F 88% 30.07 in 3.0 mi Calm Calm - N/A   Clear
2:54 AM 70.0 °F - 66.9 °F 90% 29.97 in 3.0 mi Calm Calm - N/A   Clear
3:12 AM 69.8 °F - 66.2 °F 88% 30.06 in 1.8 mi WSW 3.5 mph - N/A   Partly Cloudy
3:31 AM 69.8 °F - 66.2 °F 88% 30.06 in 2.0 mi Calm Calm - N/A   Clear
3:54 AM 69.1 °F - 66.0 °F 90% 29.97 in 2.5 mi Calm Calm - N/A   Clear
4:00 AM 69.8 °F - 66.2 °F 88% 30.06 in 3.0 mi Calm Calm - N/A   Partly Cloudy
4:54 AM 66.9 °F - 64.9 °F 93% 29.99 in 3.0 mi Calm Calm - N/A   Clear
5:12 AM 68.0 °F - 66.2 °F 94% 30.07 in 2.5 mi Calm Calm - N/A   Clear
5:23 AM 66.2 °F - 64.4 °F 94% 30.07 in 1.0 mi Calm Calm - N/A   Clear
5:30 AM 66.2 °F - 66.2 °F 100% 30.07 in 0.2 mi Calm Calm - N/A Fog Fog
5:42 AM 66.2 °F - 64.4 °F 94% 30.07 in 1.0 mi Calm Calm - N/A   Mist
5:44 AM 66.2 °F - 64.4 °F 94% 30.07 in 1.5 mi Calm Calm - N/A   Partly Cloudy
5:54 AM 66.9 °F - 64.9 °F 93% 30.00 in 2.5 mi Calm Calm - N/A   Partly Cloudy
6:03 AM 66.2 °F - 64.4 °F 94% 30.07 in 1.5 mi Calm Calm - N/A   Clear
6:10 AM 66.2 °F - 64.4 °F 94% 30.07 in 2.0 mi Calm Calm - N/A   Partly Cloudy
6:13 AM 66.2 °F - 64.4 °F 94% 30.07 in 1.2 mi Calm Calm - N/A   Partly Cloudy
6:16 AM 66.2 °F - 64.4 °F 94% 30.07 in 0.8 mi Calm Calm - N/A   Mist
6:30 AM 66.2 °F - 64.4 °F 94% 30.08 in 1.2 mi NNW 3.5 mph - N/A   Partly Cloudy
6:37 AM 66.2 °F - 64.4 °F 94% 30.08 in 0.8 mi NW 3.5 mph - N/A   Mist
6:54 AM 66.0 °F - 64.9 °F 96% 30.01 in 0.5 mi Calm Calm - N/A Fog Fog
7:54 AM 66.9 °F - 64.9 °F 93% 30.02 in 1.0 mi Calm Calm - N/A   Mist
8:50 AM 69.8 °F - 66.2 °F 88% 30.10 in 2.0 mi Calm Calm - N/A   Clear
8:54 AM 71.1 °F - 66.9 °F 87% 30.02 in 2.0 mi Calm Calm - N/A   Clear
9:54 AM 73.9 °F - 66.9 °F 79% 30.03 in 4.0 mi North 5.8 mph - N/A   Haze
10:54 AM 79.0 °F - 68.0 °F 69% 30.03 in 5.0 mi North 8.1 mph - N/A   Haze
11:54 AM 80.1 °F 82.9 °F 69.1 °F 69% 30.02 in 5.0 mi Calm Calm - N/A   Haze
12:54 PM 82.9 °F 85.4 °F 66.9 °F 58% 30.01 in 6.0 mi NNW 4.6 mph - N/A   Haze
1:54 PM 87.1 °F 91.3 °F 69.1 °F 55% 29.99 in 6.0 mi NNW 8.1 mph - N/A   Haze
2:54 PM 88.0 °F 90.7 °F 66.9 °F 49% 29.98 in 7.0 mi NNW 10.4 mph - N/A   Clear
3:54 PM 88.0 °F 90.7 °F 66.9 °F 49% 29.96 in 7.0 mi North 11.5 mph - N/A   Partly Cloudy
4:54 PM 88.0 °F 89.6 °F 64.9 °F 46% 29.94 in 7.0 mi North 10.4 mph - N/A   Clear
5:54 PM 87.1 °F 89.2 °F 66.0 °F 49% 29.94 in 7.0 mi North 8.1 mph - N/A   Clear
6:54 PM 84.9 °F 87.1 °F 66.0 °F 53% 29.94 in 7.0 mi NNW 10.4 mph - N/A   Clear
7:54 PM 84.0 °F 86.3 °F 66.0 °F 55% 29.95 in 7.0 mi NNW 6.9 mph - N/A   Clear
8:54 PM 80.1 °F 82.3 °F 66.9 °F 64% 29.96 in 7.0 mi WNW 4.6 mph - N/A   Clear
9:54 PM 79.0 °F - 66.9 °F 66% 29.96 in 7.0 mi NNW 3.5 mph - N/A   Clear
10:54 PM 73.9 °F - 68.0 °F 82% 29.97 in 6.0 mi Calm Calm - N/A   Haze
11:54 PM 73.0 °F - 68.0 °F 84% 29.98 in 5.0 mi Calm Calm - N/A   Haze